Location: Ladysmith
(45.4630°N, 91.1040°W)
Time: 19:46:52
(UTC-05:00)

Amateur Radio Satellites - All Passes

Search period start: 30 June 2016 19:16
Search period end: 01 July 2016 19:16
Location: Ladysmith, 45.4630°N, 91.1040°W

Satellite Date Start Highest point End Downlink Frequencies (MHz)
Time Altitude Azimuth
LilacSat-2 30 Jun 19:20:47 19:23:53 24° 266° (W) 19:27:00 437.200
COMPASS 1 30 Jun 19:20:51 19:22:47 13° 61° (ENE) 19:24:42 437.405
Cubesat XI-IV 30 Jun 19:21:39 19:26:28 34° 264° (W) 19:31:21 437.490
GOMX 1 30 Jun 19:22:12 19:26:30 42° 261° (W) 19:30:36 467.674
CANX-2 30 Jun 19:26:09 19:29:54 30° 68° (ENE) 19:33:40 2200.000
NOAA 18 30 Jun 19:35:47 19:40:10 24° 267° (W) 19:44:35 137.9125
STRAND 1 30 Jun 19:39:14 19:43:40 28° 95° (E) 19:48:02 437.568
SEEDS 30 Jun 19:45:19 19:49:03 30° 68° (ENE) 19:52:48 437.485
CUTE 1.7 + AOD 2 30 Jun 19:45:21 19:49:22 41° 71° (ENE) 19:53:26 437.475
AUBIESAT-1 30 Jun 19:46:33 19:47:06 10° 55° (NE) 19:47:39 437.475
CUTE-I 30 Jun 19:56:57 20:00:28 18° 270° (W) 20:04:00 437.470
HO-68 30 Jun 20:09:21 20:16:31 88° 78° (ENE) 20:23:46 435.675
DOVE 4 30 Jun 20:11:11 20:14:52 28° 265° (W) 20:18:27 437.250
AAUSAT CUBESAT 2 30 Jun 20:17:25 20:21:17 37° 70° (ENE) 20:25:10 437.432
M-CUBED/EXP-1 PRIME 30 Jun 20:25:16 20:28:14 33° 65° (ENE) 20:31:16 437.505
GONETS M04 30 Jun 20:26:03 20:33:41 33° 293° (WNW) 20:41:22
CUBEBUG 2 30 Jun 20:29:27 20:33:24 42° 71° (ENE) 20:37:29 437.445
Cosmos 2499 30 Jun 20:37:39 20:45:27 39° 291° (WNW) 20:53:39 435.465 / 435.565
RS-15 30 Jun 20:41:44 20:54:09 86° 54° (NE) 21:06:29 29.354- 29.394
ZACube-1 30 Jun 20:45:28 20:49:09 30° 67° (ENE) 20:52:57 437.345
CINEMA 3 30 Jun 20:48:54 20:52:44 36° 263° (W) 20:56:37 145.822/145.860
Oscar 11 30 Jun 20:50:21 20:54:19 36° 69° (ENE) 20:58:20 145.826/435.025
COMPASS 1 30 Jun 20:53:34 20:57:46 72° 258° (WSW) 21:02:00 437.405
PRISM 30 Jun 20:58:48 21:02:08 24° 95° (E) 21:05:26 437.425
FUNcube-1 30 Jun 21:01:20 21:05:18 40° 70° (ENE) 21:09:22 145.935
CANX-2 30 Jun 21:02:03 21:05:44 28° 265° (W) 21:09:27 2200.000
UWE-3 30 Jun 21:11:24 21:15:37 82° 76° (ENE) 21:19:59 435.000/436.395/437.385
AO-85 30 Jun 21:16:49 21:22:04 52° 120° (ESE) 21:27:09 145.980
AUBIESAT-1 30 Jun 21:17:52 21:21:07 61° 253° (WSW) 21:24:27 437.475
STRAND 1 30 Jun 21:18:08 21:22:57 41° 293° (WNW) 21:27:44 437.568
SEEDS 30 Jun 21:21:07 21:24:44 27° 265° (W) 21:28:23 437.485
CUTE 1.7 + AOD 2 30 Jun 21:22:13 21:25:23 20° 268° (W) 21:28:35 437.475
HUMSAT D 30 Jun 21:37:26 21:40:55 26° 67° (ENE) 21:44:27 437.325/437.525
DELFI C3 30 Jun 21:43:39 21:47:37 60° 74° (ENE) 21:51:36 145.870
AAUSAT CUBESAT 2 30 Jun 21:53:41 21:56:53 21° 267° (W) 22:00:07 437.432
HO-68 30 Jun 22:00:28 22:05:09 18° 271° (W) 22:09:53 435.675
M-CUBED/EXP-1 PRIME 30 Jun 22:01:08 22:02:59 14° 262° (W) 22:04:52 437.505
CUBEBUG 2 30 Jun 22:07:17 22:10:16 19° 269° (W) 22:13:19 437.445
ESTCUBE 1 30 Jun 22:09:33 22:11:42 13° 59° (ENE) 22:13:50 437.505/2401.250
ZACube-1 30 Jun 22:21:49 22:25:26 27° 266° (W) 22:29:09 437.345
TIGRISAT 30 Jun 22:26:18 22:29:25 17° 91° (E) 22:32:32 435.000
Oscar 11 30 Jun 22:27:04 22:30:33 23° 267° (W) 22:34:04 145.826/435.025
UNISAT 6 30 Jun 22:31:58 22:35:31 21° 92° (E) 22:39:04 437.425
PRISM 30 Jun 22:33:52 22:37:29 31° 292° (WNW) 22:41:05 437.425
SO-50 30 Jun 22:35:51 22:39:10 18° 33° (NNE) 22:42:23 436.795
YUBILEINY 30 Jun 22:37:22 22:44:38 27° 63° (ENE) 22:51:50 435.215
FUNcube-1 30 Jun 22:38:35 22:41:44 20° 268° (W) 22:44:57 145.935
CUBEBUG 1 30 Jun 22:42:51 22:45:47 18° 63° (ENE) 22:48:44 437.445
RS-15 30 Jun 22:55:22 23:05:16 30° 258° (WSW) 23:15:06 29.354- 29.394
VELOX 1 30 Jun 22:56:59 23:00:28 23° 65° (ENE) 23:03:56 145.980
AO-85 30 Jun 22:58:01 23:02:48 32° 318° (NW) 23:07:24 145.980
ANTELSAT 30 Jun 23:10:59 23:15:32 49° 99° (E) 23:20:05 437.575/2403.000
HUMSAT D 30 Jun 23:12:42 23:16:26 31° 264° (W) 23:20:15 437.325/437.525
50 SAT 30 Jun 23:18:41 23:22:06 35° 70° (ENE) 23:25:32 437.505
DELFI C3 30 Jun 23:21:07 23:22:52 12° 271° (W) 23:24:37 145.870
SPROUT 30 Jun 23:21:30 23:24:24 18° 63° (ENE) 23:27:18 437.525
UKube-1 30 Jun 23:24:03 23:27:42 27° 66° (ENE) 23:31:22 .
AISAT 30 Jun 23:37:07 23:41:26 60° 72° (ENE) 23:45:47 437.250
ESTCUBE 1 30 Jun 23:43:20 23:47:53 80° 259° (WSW) 23:52:26 437.505/2401.250
DX 1 30 Jun 23:48:04 23:52:20 59° 72° (ENE) 23:56:38 434.975-435.025
NANOSAT C BR1 30 Jun 23:48:15 23:51:24 20° 93° (E) 23:54:32 145.865
Cosmos 2491 30 Jun 23:51:33 23:58:59 32° 83° (E) 00:06:22 435.465 / 435.565
QB50P1 30 Jun 23:52:32 23:55:58 23° 94° (E) 23:59:23 145.935-145.965
POPSAT HIP 1 30 Jun 23:55:56 23:59:28 25° 94° (E) 00:02:58 437.405
TIGRISAT 01 Jul 00:01:51 00:06:25 56° 288° (WNW) 00:11:01 435.000
Cosmos 2504 01 Jul 00:04:41 00:12:20 31° 64° (ENE) 00:19:42 435.465 / 435.565
DUCHIFAT 1 01 Jul 00:07:08 00:10:50 29° 96° (E) 00:14:34 145.980
UNISAT 6 01 Jul 00:07:58 00:12:26 46° 289° (WNW) 00:16:55 437.425
QB50P2 01 Jul 00:08:39 00:12:36 35° 97° (E) 00:16:32 145.880/145.840
POLYITAN 1 01 Jul 00:11:15 00:15:14 36° 98° (E) 00:19:12 437.675
SO-50 01 Jul 00:15:38 00:20:22 87° 56° (NE) 00:24:54 436.795
CUBEBUG 1 01 Jul 00:17:29 00:21:43 50° 260° (W) 00:25:57 437.445
TISAT 1 01 Jul 00:31:37 00:35:03 26° 66° (ENE) 00:38:30 437.305
VELOX 1 01 Jul 00:32:36 00:36:43 38° 262° (W) 00:40:52 145.980
YUBILEINY 01 Jul 00:33:33 00:42:22 76° 265° (W) 00:51:10 435.215
AO-85 01 Jul 00:43:36 00:44:50 11° 340° (NNW) 00:46:04 145.980
ANTELSAT 01 Jul 00:48:26 00:51:55 21° 296° (WNW) 00:55:24 437.575/2403.000
BUGSAT 1 01 Jul 00:52:04 00:55:58 40° 98° (E) 00:59:52 437.445
50 SAT 01 Jul 00:53:20 00:55:54 18° 267° (W) 00:58:28 437.505
JAS-2 01 Jul 00:53:32 00:58:01 24° 91° (E) 01:02:14 435.910
SPROUT 01 Jul 00:55:54 01:00:00 48° 261° (W) 01:04:08 437.525
UKube-1 01 Jul 00:59:50 01:03:40 31° 263° (W) 01:07:31 .
BEESAT 01 Jul 01:02:35 01:05:06 14° 58° (ENE) 01:07:37 436.000
ITUPSAT 1 01 Jul 01:05:13 01:07:53 15° 58° (ENE) 01:10:33 437.325
PCSat 01 Jul 01:11:13 01:15:22 23° 107° (ESE) 01:19:32 145.827
AISAT 01 Jul 01:15:53 01:18:19 14° 270° (W) 01:20:45 437.250
Oscar 19 01 Jul 01:22:36 01:25:41 16° 90° (E) 01:28:46 437.125/150
NANOSAT C BR1 01 Jul 01:23:18 01:27:18 41° 290° (WNW) 01:31:17 145.865
DX 1 01 Jul 01:26:31 01:28:55 14° 269° (W) 01:31:19 434.975-435.025
QB50P1 01 Jul 01:27:56 01:31:49 35° 291° (WNW) 01:35:42 145.935-145.965
POPSAT HIP 1 01 Jul 01:31:27 01:35:18 33° 291° (WNW) 01:39:07 437.405
DUCHIFAT 1 01 Jul 01:42:52 01:46:29 28° 293° (WNW) 01:50:06 145.980
QB50P2 01 Jul 01:44:48 01:48:14 24° 294° (WNW) 01:51:39 145.880/145.840
Cosmos 2491 01 Jul 01:46:39 01:55:17 61° 284° (WNW) 02:03:57 435.465 / 435.565
POLYITAN 1 01 Jul 01:47:28 01:50:51 23° 295° (WNW) 01:54:15 437.675
Cosmos 2504 01 Jul 01:57:40 02:06:29 69° 267° (W) 02:14:54 435.465 / 435.565
SO-50 01 Jul 01:58:14 02:00:05 12° 253° (WSW) 02:01:55 436.795
Gurwin Techsat 1B 01 Jul 02:00:35 02:03:54 16° 89° (E) 02:07:11 435.225
TISAT 1 01 Jul 02:06:54 02:10:36 31° 264° (W) 02:14:20 437.305
O/OREOS (USA 219) 01 Jul 02:11:07 02:15:04 31° 105° (ESE) 02:19:02 437.305
SWISSCUBE 01 Jul 02:12:30 02:17:15 65° 72° (ENE) 02:22:02 437.505
BEESAT 3 01 Jul 02:18:47 02:22:33 49° 120° (ESE) 02:26:24 437.485
BUGSAT 1 01 Jul 02:28:04 02:31:06 20° 295° (WNW) 02:34:08 437.445
YUBILEINY 01 Jul 02:32:46 02:37:35 16° 287° (WNW) 02:42:24 435.215
BEESAT 01 Jul 02:37:26 02:42:13 82° 255° (WSW) 02:47:04 436.000
JAS-2 01 Jul 02:38:05 02:43:28 46° 292° (WNW) 02:48:27 435.910
ITUPSAT 1 01 Jul 02:40:17 02:45:05 79° 256° (WSW) 02:49:57 437.325
KKS-1 01 Jul 02:44:47 02:47:36 17° 61° (ENE) 02:50:25 437.445
PCSat 01 Jul 02:52:59 02:58:20 59° 306° (NW) 03:03:44 145.827
MOZHAYETS 4 01 Jul 02:54:10 02:57:27 19° 62° (ENE) 03:00:44
Oscar 19 01 Jul 03:00:25 03:05:32 70° 287° (WNW) 03:10:37 437.125/150
BEESAT 2 01 Jul 03:01:51 03:05:49 78° 123° (ESE) 03:09:49 435.950
AIST 1 01 Jul 03:09:03 03:11:50 17° 68° (ENE) 03:14:37
STARS 01 Jul 03:09:45 03:12:20 16° 61° (ENE) 03:14:55 437.465
ITAMSAT 1 01 Jul 03:29:00 03:33:49 36° 97° (E) 03:38:36 435.822/435.867
AO-7 01 Jul 03:32:10 03:38:20 22° 90° (E) 03:44:26 29.400- 29.500
Gurwin Techsat 1B 01 Jul 03:39:04 03:44:24 72° 287° (WNW) 03:49:41 435.225
Cosmos 2491 01 Jul 03:50:06 03:54:19 14° 308° (NW) 03:58:32 435.465 / 435.565
O/OREOS (USA 219) 01 Jul 03:50:29 03:54:26 30° 303° (WNW) 03:58:25 437.305
SWISSCUBE 01 Jul 03:52:38 03:55:29 16° 270° (W) 03:58:22 437.505
Cosmos 2504 01 Jul 03:53:48 03:58:05 15° 288° (WNW) 04:02:19 435.465 / 435.565
BEESAT 3 01 Jul 03:57:24 04:00:30 22° 319° (NW) 04:03:36 437.485
AO-85 01 Jul 04:07:27 04:10:24 16° 30° (NNE) 04:13:13 145.980
AIST 2 01 Jul 04:07:46 04:11:00 22° 114° (ESE) 04:14:14 435.215
KKS-1 01 Jul 04:19:23 04:23:44 58° 259° (W) 04:28:07 437.445
CUBESAT XI-V 01 Jul 04:28:52 04:32:28 22° 64° (ENE) 04:36:03 437.345
MOZHAYETS 4 01 Jul 04:29:42 04:34:13 53° 260° (W) 04:38:48
Cosmos 2499 01 Jul 04:33:12 04:39:58 24° 60° (ENE) 04:46:26 435.465 / 435.565
GONETS M04 01 Jul 04:35:22 04:43:08 34° 67° (ENE) 04:50:52
PCSat 01 Jul 04:39:48 04:42:55 15° 328° (NNW) 04:46:01 145.827
BEESAT 2 01 Jul 04:41:33 04:44:09 17° 323° (NW) 04:46:47 435.950
Oscar 19 01 Jul 04:42:32 04:43:56 11° 306° (NW) 04:45:19 437.125/150
STARS 01 Jul 04:43:55 04:48:12 62° 258° (WSW) 04:52:34 437.465
AIST 1 01 Jul 04:45:38 04:49:44 47° 266° (W) 04:53:49
ITAMSAT 1 01 Jul 05:08:35 05:13:13 33° 295° (WNW) 05:17:50 435.822/435.867
Gurwin Techsat 1B 01 Jul 05:21:29 05:23:24 12° 306° (NW) 05:25:19 435.225
AO-7 01 Jul 05:23:39 05:32:05 86° 291° (WNW) 05:40:28 29.400- 29.500
HORYU 2 01 Jul 05:33:30 05:37:41 36° 98° (E) 05:41:50 437.375
AIST 2 01 Jul 05:45:18 05:49:14 42° 312° (NW) 05:53:13 435.215
AO-85 01 Jul 05:47:08 05:51:46 75° 52° (NE) 05:55:57 145.980
CUSAT 1 01 Jul 05:53:19 05:56:19 13° 84° (E) 05:59:07 437.405
Cubesat XI-IV 01 Jul 05:58:45 06:00:21 11° 86° (E) 06:01:57 437.490
CUBESAT XI-V 01 Jul 06:05:02 06:09:33 46° 261° (W) 06:14:04 437.345
NOAA 18 01 Jul 06:14:40 06:18:22 18° 90° (E) 06:22:03 137.9125
Cosmos 2499 01 Jul 06:25:31 06:34:22 86° 262° (W) 06:42:37 435.465 / 435.565
CUTE-I 01 Jul 06:30:05 06:34:18 23° 92° (E) 06:38:28 437.470
GONETS M04 01 Jul 06:31:56 06:40:26 60° 269° (W) 06:48:58
PHONESAT 2.4 01 Jul 06:38:25 06:40:45 20° 163° (SSE) 06:43:06 2401.200-2431.200
DANDE 01 Jul 06:39:54 06:45:10 19° 82° (E) 06:50:05 436.750
NOAA 15 01 Jul 06:48:21 06:53:21 43° 99° (E) 06:58:19 137.62
LilacSat-2 01 Jul 06:51:17 06:54:45 30° 96° (E) 06:58:12 437.200
STRAND 1 01 Jul 06:57:00 07:01:57 50° 70° (ENE) 07:06:57 437.568
BRITE-PL 01 Jul 07:02:14 07:06:20 57° 101° (E) 07:10:29 437.365/2234.400
HORYU 2 01 Jul 07:10:22 07:14:04 25° 295° (WNW) 07:17:45 437.375
AO-7 01 Jul 07:17:33 07:23:48 24° 312° (NW) 07:30:01 29.400- 29.500
GOMX 1 01 Jul 07:20:54 07:24:55 41° 98° (E) 07:29:05 467.674
AO-85 01 Jul 07:29:29 07:31:27 13° 253° (WSW) 07:33:22 145.980
CUSAT 1 01 Jul 07:30:14 07:37:44 71° 98° (E) 07:43:50 437.405
Cubesat XI-IV 01 Jul 07:35:49 07:41:15 82° 106° (ESE) 07:46:38 437.490
HO-68 01 Jul 07:36:50 07:40:33 14° 86° (E) 07:44:15 435.675
PRISM 01 Jul 07:50:19 07:53:42 24° 66° (ENE) 07:57:04 437.425
NOAA 18 01 Jul 07:54:00 07:59:33 71° 289° (WNW) 08:05:04 137.9125
DOVE 4 01 Jul 08:06:10 08:10:29 58° 101° (E) 08:15:01 437.250
ISS 01 Jul 08:07:40 08:10:39 33° 141° (SE) 08:13:39 145.825
CUTE-I 01 Jul 08:09:25 08:14:39 53° 290° (WNW) 08:19:51 437.470
PHONESAT 2.4 01 Jul 08:14:08 08:16:55 32° 179° (S) 08:19:42 2401.200-2431.200
PCSat 01 Jul 08:14:35 08:15:19 10° 22° (NNE) 08:16:02 145.827
DANDE 01 Jul 08:18:48 08:27:12 82° 99° (E) 08:34:37 436.750
Cosmos 2499 01 Jul 08:20:28 08:26:05 19° 285° (WNW) 08:31:32 435.465 / 435.565
LilacSat-2 01 Jul 08:25:49 08:28:55 23° 293° (WNW) 08:32:00 437.200
NOAA 15 01 Jul 08:28:31 08:32:57 28° 297° (WNW) 08:37:21 137.62
GONETS M04 01 Jul 08:33:02 08:35:16 11° 290° (WNW) 08:37:31
COMPASS 1 01 Jul 08:35:25 08:37:59 16° 90° (E) 08:40:32 437.405
STRAND 1 01 Jul 08:37:23 08:41:24 23° 267° (W) 08:45:26 437.568
CINEMA 3 01 Jul 08:40:12 08:44:34 41° 98° (E) 08:49:05 145.822/145.860
BRITE-PL 01 Jul 08:42:11 08:44:26 14° 298° (WNW) 08:46:41 437.365/2234.400
CANX-2 01 Jul 08:44:11 08:48:18 42° 98° (E) 08:52:21 2200.000
BEESAT 3 01 Jul 08:57:53 08:59:20 12° 31° (NNE) 09:00:47 437.485
GOMX 1 01 Jul 08:59:42 09:02:49 20° 295° (WNW) 09:06:00 467.674
UWE-3 01 Jul 08:59:45 09:02:33 16° 90° (E) 09:05:20 435.000/436.395/437.385
SEEDS 01 Jul 09:02:06 09:06:09 42° 98° (E) 09:10:08 437.485
CUTE 1.7 + AOD 2 01 Jul 09:03:30 09:07:46 60° 100° (E) 09:11:58 437.475
CUSAT 1 01 Jul 09:14:27 09:20:06 24° 292° (WNW) 09:24:58 437.405
Cubesat XI-IV 01 Jul 09:17:19 09:20:39 17° 303° (WNW) 09:23:58 437.490
HO-68 01 Jul 09:22:09 09:29:24 77° 105° (ESE) 09:36:36 435.675
PRISM 01 Jul 09:25:08 09:28:52 32° 263° (W) 09:32:37 437.425
TIGRISAT 01 Jul 09:27:24 09:30:29 19° 63° (ENE) 09:33:38 435.000
AAUSAT CUBESAT 2 01 Jul 09:32:33 09:36:38 51° 99° (E) 09:40:40 437.432
UNISAT 6 01 Jul 09:33:10 09:36:35 23° 64° (ENE) 09:40:05 437.425
M-CUBED/EXP-1 PRIME 01 Jul 09:35:48 09:38:53 21° 101° (E) 09:42:07 437.505
NOAA 18 01 Jul 09:36:58 09:39:14 13° 307° (NW) 09:41:30 137.9125
BEESAT 2 01 Jul 09:41:05 09:43:32 15° 35° (NE) 09:45:59 435.950
ISS 01 Jul 09:43:53 09:47:02 45° 340° (NNW) 09:50:13 145.825
DOVE 4 01 Jul 09:45:07 09:47:49 16° 297° (WNW) 09:50:36 437.250
PHONESAT 2.4 01 Jul 09:50:41 09:53:06 21° 196° (SSW) 09:55:32 2401.200-2431.200
CUBEBUG 2 01 Jul 09:53:45 09:58:25 75° 103° (ESE) 10:03:08 437.445
PCSat 01 Jul 09:55:34 10:00:29 33° 46° (NE) 10:05:22 145.827
Cosmos 2491 01 Jul 09:58:38 10:04:18 18° 56° (ENE) 10:09:57 435.465 / 435.565
DANDE 01 Jul 10:04:07 10:10:39 25° 295° (WNW) 10:16:33 436.750
ZACube-1 01 Jul 10:06:51 10:11:18 48° 99° (E) 10:15:44 437.345
COMPASS 1 01 Jul 10:09:46 10:13:50 50° 288° (WNW) 10:17:52 437.405
Oscar 11 01 Jul 10:10:56 10:15:13 54° 100° (E) 10:19:28 145.826/435.025
ANTELSAT 01 Jul 10:11:50 10:16:05 54° 72° (ENE) 10:20:26 437.575/2403.000
CINEMA 3 01 Jul 10:17:51 10:21:30 24° 294° (WNW) 10:25:16 145.822/145.860
CANX-2 01 Jul 10:20:43 10:23:52 20° 296° (WNW) 10:27:00 2200.000
FUNcube-1 01 Jul 10:22:40 10:27:13 66° 101° (E) 10:31:46 145.935
AUBIESAT-1 01 Jul 10:27:31 10:31:30 62° 108° (ESE) 10:35:43 437.475
BEESAT 3 01 Jul 10:33:55 10:37:51 60° 52° (NE) 10:41:45 437.485
UWE-3 01 Jul 10:34:49 10:39:23 62° 286° (WNW) 10:43:59 435.000/436.395/437.385
SEEDS 01 Jul 10:38:27 10:41:34 20° 295° (WNW) 10:44:40 437.485
O/OREOS (USA 219) 01 Jul 10:40:29 10:42:40 13° 46° (NE) 10:44:52 437.305
CUTE 1.7 + AOD 2 01 Jul 10:40:40 10:43:08 15° 298° (WNW) 10:45:35 437.475
NANOSAT C BR1 01 Jul 10:42:44 10:45:48 20° 64° (ENE) 10:48:54 145.865
QB50P1 01 Jul 10:47:15 10:50:34 23° 66° (ENE) 10:53:55 145.935-145.965
POPSAT HIP 1 01 Jul 10:50:40 10:54:05 25° 66° (ENE) 10:57:31 437.405
HUMSAT D 01 Jul 10:53:27 10:57:25 35° 96° (E) 11:01:22 437.325/437.525
DELFI C3 01 Jul 10:53:48 10:57:48 74° 101° (ESE) 11:01:46 145.870
DUCHIFAT 1 01 Jul 11:01:09 11:04:45 28° 67° (ENE) 11:08:21 145.980
TIGRISAT 01 Jul 11:02:40 11:06:50 47° 261° (W) 11:11:08 435.000
QB50P2 01 Jul 11:03:19 11:07:08 35° 69° (ENE) 11:10:59 145.880/145.840
POLYITAN 1 01 Jul 11:05:55 11:09:46 36° 69° (ENE) 11:13:37 437.675
RS-15 01 Jul 11:07:52 11:18:21 45° 109° (ESE) 11:29:20 29.354- 29.394
JAS-2 01 Jul 11:07:55 11:13:00 21° 58° (ENE) 11:17:44 435.910
UNISAT 6 01 Jul 11:09:02 11:13:05 38° 263° (W) 11:17:16 437.425
AAUSAT CUBESAT 2 01 Jul 11:09:04 11:11:44 17° 297° (WNW) 11:14:23 437.432
M-CUBED/EXP-1 PRIME 01 Jul 11:09:51 11:13:30 38° 295° (WNW) 11:17:25 437.505
HO-68 01 Jul 11:10:50 11:16:26 25° 305° (NW) 11:22:01 435.675
BEESAT 2 01 Jul 11:17:55 11:21:57 87° 235° (SW) 11:25:56 435.950
ISS 01 Jul 11:21:09 11:24:00 26° 360° (N) 11:26:49 145.825
CUBEBUG 2 01 Jul 11:31:56 11:34:29 15° 299° (WNW) 11:37:03 437.445
ESTCUBE 1 01 Jul 11:34:34 11:37:42 18° 92° (E) 11:40:48 437.505/2401.250
PCSat 01 Jul 11:38:52 11:44:02 45° 246° (WSW) 11:49:09 145.827
YUBILEINY 01 Jul 11:42:28 11:49:21 27° 80° (E) 11:56:16 435.215
ZACube-1 01 Jul 11:43:53 11:47:16 21° 296° (WNW) 11:50:39 437.345
BUGSAT 1 01 Jul 11:43:56 11:47:37 36° 70° (ENE) 11:51:19 437.445
Oscar 11 01 Jul 11:48:06 11:50:56 17° 298° (WNW) 11:53:46 145.826/435.025
ANTELSAT 01 Jul 11:50:29 11:53:10 16° 270° (W) 11:55:54 437.575/2403.000
Cosmos 2491 01 Jul 11:54:02 12:02:48 77° 80° (E) 12:11:32 435.465 / 435.565
FUNcube-1 01 Jul 12:00:12 12:02:57 16° 298° (WNW) 12:05:42 145.935
AUBIESAT-1 01 Jul 12:03:18 12:05:37 15° 302° (WNW) 12:08:00 437.475
CUBEBUG 1 01 Jul 12:04:07 12:07:40 24° 94° (E) 12:11:11 437.445
BEESAT 3 01 Jul 12:12:52 12:15:04 14° 249° (WSW) 12:17:16 437.485
NANOSAT C BR1 01 Jul 12:17:20 12:21:17 41° 262° (W) 12:25:16 145.865
O/OREOS (USA 219) 01 Jul 12:18:15 12:22:46 89° 46° (NE) 12:27:16 437.305
50 SAT 01 Jul 12:19:00 12:22:21 32° 97° (E) 12:25:39 437.505
VELOX 1 01 Jul 12:20:17 12:24:15 32° 96° (E) 12:28:11 145.980
QB50P1 01 Jul 12:22:21 12:26:11 35° 263° (W) 12:30:04 145.935-145.965
POPSAT HIP 1 01 Jul 12:25:58 12:29:44 32° 263° (W) 12:33:32 437.405
AIST 2 01 Jul 12:26:12 12:29:59 32° 45° (NE) 12:33:45 435.215
HUMSAT D 01 Jul 12:29:22 12:32:53 25° 294° (WNW) 12:36:23 437.325/437.525
DELFI C3 01 Jul 12:30:47 12:32:05 11° 300° (WNW) 12:33:23 145.870
DUCHIFAT 1 01 Jul 12:36:49 12:40:24 27° 265° (W) 12:44:00 145.980
QB50P2 01 Jul 12:39:43 12:43:02 22° 266° (W) 12:46:23 145.880/145.840
SPROUT 01 Jul 12:39:54 12:43:23 24° 94° (E) 12:46:52 437.525
Oscar 19 01 Jul 12:41:05 12:45:30 30° 65° (ENE) 12:49:56 437.125/150
POLYITAN 1 01 Jul 12:42:24 12:45:40 22° 266° (W) 12:48:58 437.675
UKube-1 01 Jul 12:44:14 12:48:12 35° 98° (E) 12:52:09 .
Cosmos 2504 01 Jul 12:47:17 12:53:11 22° 77° (ENE) 12:59:19 435.465 / 435.565
AO-7 01 Jul 12:48:11 12:50:18 11° 34° (NNE) 12:52:26 29.400- 29.500
JAS-2 01 Jul 12:49:48 12:57:22 89° 255° (WSW) 13:04:09 435.910
ISS 01 Jul 12:57:48 13:00:58 43° 20° (NNE) 13:04:06 145.825
AISAT 01 Jul 13:01:15 13:05:40 89° 120° (ESE) 13:10:04 437.250
DX 1 01 Jul 13:09:57 13:14:18 82° 102° (ESE) 13:18:39 434.975-435.025
ESTCUBE 1 01 Jul 13:10:26 13:14:47 49° 289° (WNW) 13:19:05 437.505/2401.250
ITAMSAT 1 01 Jul 13:14:03 13:15:36 11° 53° (NE) 13:17:09 435.822/435.867
RS-15 01 Jul 13:18:54 13:30:21 65° 314° (NW) 13:42:30 29.354- 29.394
BUGSAT 1 01 Jul 13:20:11 13:23:08 20° 267° (W) 13:26:06 437.445
Gurwin Techsat 1B 01 Jul 13:23:18 13:28:00 33° 65° (ENE) 13:32:43 435.225
YUBILEINY 01 Jul 13:36:38 13:45:19 72° 281° (WNW) 13:54:08 435.215
CUBEBUG 1 01 Jul 13:40:06 13:44:01 34° 291° (WNW) 13:47:56 437.445
TISAT 1 01 Jul 13:48:08 13:51:57 32° 97° (E) 13:55:45 437.305
Cosmos 2491 01 Jul 13:52:09 13:58:41 25° 281° (W) 14:05:14 435.465 / 435.565
50 SAT 01 Jul 13:53:07 13:55:50 20° 294° (WNW) 13:58:31 437.505
VELOX 1 01 Jul 13:56:54 14:00:37 27° 294° (WNW) 14:04:20 145.980
AIST 2 01 Jul 14:04:45 14:08:27 31° 244° (WSW) 14:12:06 435.215
SWISSCUBE 01 Jul 14:12:05 14:14:33 14° 89° (E) 14:17:01 437.505
SPROUT 01 Jul 14:15:30 14:19:24 34° 291° (WNW) 14:23:17 437.525
Oscar 19 01 Jul 14:19:55 14:24:42 38° 262° (W) 14:29:30 437.125/150
UKube-1 01 Jul 14:20:36 14:24:06 24° 295° (WNW) 14:27:34 .
SO-50 01 Jul 14:33:05 14:36:18 18° 110° (ESE) 14:39:31 436.795
AO-7 01 Jul 14:33:14 14:40:45 40° 57° (ENE) 14:48:19 29.400- 29.500
ISS 01 Jul 14:34:19 14:37:23 37° 218° (SW) 14:40:26 145.825
BEESAT 01 Jul 14:36:01 14:39:43 22° 93° (E) 14:43:22 436.000
Cosmos 2504 01 Jul 14:37:04 14:45:21 86° 278° (W) 14:54:13 435.465 / 435.565
JAS-2 01 Jul 14:38:13 14:43:02 18° 271° (W) 14:47:36 435.910
ITUPSAT 1 01 Jul 14:39:11 14:42:59 23° 93° (E) 14:46:45 437.325
AISAT 01 Jul 14:40:04 14:41:28 11° 302° (WNW) 14:42:51 437.250
DX 1 01 Jul 14:48:10 14:49:52 12° 302° (WNW) 14:51:34 434.975-435.025
ITAMSAT 1 01 Jul 14:48:56 14:54:07 69° 72° (ENE) 14:59:20 435.822/435.867
Gurwin Techsat 1B 01 Jul 15:03:00 15:07:53 37° 263° (W) 15:12:48 435.225
TISAT 1 01 Jul 15:24:00 15:27:28 25° 294° (WNW) 15:30:56 437.305
RS-15 01 Jul 15:35:25 15:45:48 33° 345° (NNW) 15:56:32 29.354- 29.394
YUBILEINY 01 Jul 15:38:43 15:43:59 17° 305° (NW) 15:49:18 435.215
SWISSCUBE 01 Jul 15:48:05 15:52:52 72° 287° (WNW) 15:57:37 437.505
KKS-1 01 Jul 16:08:32 16:12:03 22° 94° (E) 16:15:33 437.445
SO-50 01 Jul 16:11:23 16:16:17 70° 308° (NW) 16:21:09 436.795
BEESAT 01 Jul 16:13:08 16:17:43 46° 291° (WNW) 16:22:17 436.000
ITUPSAT 1 01 Jul 16:16:26 16:21:02 44° 291° (WNW) 16:25:34 437.325
MOZHAYETS 4 01 Jul 16:22:38 16:26:45 30° 95° (E) 16:30:49
AO-7 01 Jul 16:25:08 16:33:16 56° 258° (WSW) 16:41:29 29.400- 29.500
ITAMSAT 1 01 Jul 16:30:47 16:34:06 17° 270° (W) 16:37:25 435.822/435.867
STARS 01 Jul 16:31:41 16:34:57 20° 93° (E) 16:38:13 437.465
HORYU 2 01 Jul 16:33:26 16:37:38 44° 70° (ENE) 16:41:53 437.375
Cosmos 2504 01 Jul 16:34:06 16:40:13 21° 302° (WNW) 16:46:34 435.465 / 435.565
NOAA 15 01 Jul 16:34:09 16:36:48 14° 56° (NE) 16:39:25 137.62
BRITE-PL 01 Jul 16:40:17 16:41:47 11° 60° (ENE) 16:43:15 437.365/2234.400
Cosmos 2499 01 Jul 17:15:10 17:19:52 16° 73° (ENE) 17:24:40 435.465 / 435.565
AIST 1 01 Jul 17:16:36 17:20:55 88° 92° (E) 17:25:14
Cubesat XI-IV 01 Jul 17:21:29 17:25:47 25° 62° (ENE) 17:30:07 437.490
SWISSCUBE 01 Jul 17:28:57 17:29:48 10° 305° (NW) 17:30:38 437.505
LilacSat-2 01 Jul 17:35:49 17:38:43 21° 66° (ENE) 17:41:38 437.200
GONETS M04 01 Jul 17:39:52 17:47:26 35° 84° (E) 17:55:00
NOAA 18 01 Jul 17:42:36 17:47:42 42° 66° (ENE) 17:52:51 137.9125
KKS-1 01 Jul 17:44:36 17:48:45 39° 291° (WNW) 17:52:53 437.445
RS-15 01 Jul 17:52:03 18:02:55 35° 20° (NNE) 18:13:55 29.354- 29.394
CUTE-I 01 Jul 17:53:45 17:58:50 46° 68° (ENE) 18:03:56 437.470
SO-50 01 Jul 17:54:28 17:57:37 17° 329° (NNW) 18:00:46 436.795
CUBESAT XI-V 01 Jul 17:59:17 18:03:35 36° 97° (E) 18:07:50 437.345
MOZHAYETS 4 01 Jul 17:59:47 18:03:53 31° 293° (WNW) 18:07:56
CUSAT 1 01 Jul 18:05:01 18:08:18 35° 72° (ENE) 18:11:00 437.405
STARS 01 Jul 18:07:20 18:11:31 43° 290° (WNW) 18:15:41 437.465
HO-68 01 Jul 18:08:54 18:13:08 17° 49° (NE) 18:17:22 435.675
NOAA 15 01 Jul 18:10:29 18:15:47 85° 74° (ENE) 18:21:06 137.62
HORYU 2 01 Jul 18:11:08 18:14:24 20° 267° (W) 18:17:42 437.375
BRITE-PL 01 Jul 18:14:46 18:19:42 87° 68° (ENE) 18:24:15 437.365/2234.400
GOMX 1 01 Jul 18:31:12 18:35:36 58° 73° (ENE) 18:39:47 467.674
DANDE 01 Jul 18:59:08 19:03:55 63° 76° (ENE) 19:07:28 436.750
Cubesat XI-IV 01 Jul 19:00:21 19:05:33 51° 260° (W) 19:10:48 437.490
STRAND 1 01 Jul 19:06:49 19:09:29 14° 88° (E) 19:12:09 437.568
LilacSat-2 01 Jul 19:09:27 19:12:51 31° 264° (W) 19:16:18 437.200
